Location: Roanoke
(37.2710°N, 79.9420°W)
Time: 08:07:14
(UTC-05:00)

Cosmos 1441 Rocket - Visible Passes

Search period start: 27 November 2014 00:00
Search period end: 07 December 2014 00:00
Orbit: 507 x 555 km, 81.1° (Epoch: 27 November)

Date Brightness Start Highest point End Pass type
(mag) Time Alt. Az. Time Alt. Az. Time Alt. Az.
27 Nov 4.4 17:39:05 10° NNE 17:42:08 22° ENE 17:45:07 10° SE visible
27 Nov 5.9 19:15:18 10° NW 19:18:09 20° W 19:20:58 10° SW visible
28 Nov 4.5 17:28:51 10° NNE 17:31:49 21° ENE 17:34:44 10° SE visible
28 Nov 5.8 19:04:57 10° NW 19:07:52 21° W 19:10:46 10° SW visible
29 Nov 5.8 18:54:35 10° NW 18:57:35 22° W 19:00:32 10° SW visible
30 Nov 5.7 18:44:13 10° NW 18:47:16 23° W 18:50:18 10° SW visible
01 Dec 5.7 18:33:50 10° NW 18:36:58 24° W 18:40:03 10° SSW visible
02 Dec 5.6 18:23:27 10° NW 18:26:39 25° W 18:29:47 10° SSW visible
03 Dec 3.3 06:37:17 10° SSW 06:41:19 78° W 06:45:20 10° N visible
03 Dec 5.5 18:13:04 10° NW 18:16:19 27° W 18:19:31 10° SSW visible
04 Dec 3.3 06:26:57 10° S 06:30:59 82° W 06:35:00 10° N visible
04 Dec 5.5 18:02:41 10° NNW 18:05:59 28° W 18:09:14 10° SSW visible
05 Dec 3.3 06:16:36 10° S 06:20:38 87° W 06:24:39 10° N visible
05 Dec 5.4 17:52:17 10° NNW 17:55:38 29° W 17:58:56 10° SSW visible
06 Dec 3.3 06:06:16 10° S 06:10:17 89° E 06:14:17 10° N visible
06 Dec 5.3 17:41:53 10° NNW 17:45:17 31° W 17:48:37 10° SSW visible
